Date,TemperatureHighF,TemperatureAvgF,TemperatureLowF,DewpointHighF,DewpointAvgF,DewpointLowF,HumidityHigh,HumidityAvg,HumidityLow,PressureMaxIn,PressureMinIn,WindSpeedMaxMPH,WindSpeedAvgMPH,GustSpeedMaxMPH,PrecipitationSumIn
2013-3-1,74,59,46,67,52,38,80,78,75,30.10,29.87,2,0,5,0.00
2013-3-2,72,60,50,66,54,43,80,78,76,29.92,29.69,5,0,7,0.00
2013-3-3,64,57,48,57,50,41,79,78,76,29.74,29.64,3,0,4,0.00
2013-3-4,70,52,41,64,45,33,80,76,73,29.81,29.64,5,0,6,0.00
2013-3-5,65,51,43,58,44,36,79,77,75,29.73,29.51,5,0,7,0.05
2013-3-6,57,49,44,50,41,36,78,76,74,29.73,29.53,11,0,11,0.39
2013-3-7,59,48,38,52,41,30,78,76,74,29.71,29.55,7,0,8,0.00
2013-3-8,64,50,37,57,43,30,79,76,74,29.71,29.45,6,0,8,0.00
2013-3-9,69,53,38,63,46,30,80,77,74,29.96,29.71,6,1,10,0.00
2013-3-10,68,54,39,62,47,31,80,77,74,30.05,29.88,5,0,7,0.00
2013-3-11,74,58,44,67,51,37,80,78,75,29.94,29.72,6,0,6,0.00
2013-3-12,77,61,47,71,54,40,81,78,75,29.81,29.67,4,0,5,0.00
2013-3-13,80,64,50,74,58,43,81,79,76,29.82,29.67,4,0,5,0.00
2013-3-14,80,65,54,74,59,47,81,79,77,29.78,29.67,2,0,3,0.00
2013-3-15,77,62,52,71,55,45,81,78,76,29.76,29.62,7,0,7,0.00
2013-3-16,78,62,47,72,55,40,81,78,75,29.72,29.58,2,0,10,0.00
2013-3-17,71,58,43,64,51,36,80,78,75,29.78,29.64,5,0,8,0.26
2013-3-18,67,57,45,60,50,38,79,78,76,29.76,29.64,2,0,4,0.00
2013-3-19,71,58,47,64,51,40,80,78,75,29.81,29.68,5,0,5,0.20
2013-3-20,58,53,48,50,46,40,76,76,75,29.78,29.71,1,0,5,0.73
2013-3-21,67,53,45,60,46,37,79,76,72,29.79,29.61,8,0,8,0.01
2013-3-22,65,52,40,58,45,32,79,77,74,29.77,29.65,11,1,23,0.00
2013-3-23,71,52,35,64,45,28,80,77,74,29.83,29.65,1,0,5,0.00
2013-3-24,77,59,44,71,52,37,81,78,75,29.76,29.55,6,0,6,0.00
2013-3-25,76,58,46,70,52,38,81,78,75,29.67,29.51,6,0,6,0.00
2013-3-26,77,58,41,71,51,33,81,78,73,29.65,29.51,2,0,4,0.00
2013-3-29,68,64,60,62,57,54,80,79,79,29.67,29.62,0,0,0,0.00
2013-3-30,80,64,52,74,57,45,81,79,77,29.69,29.55,4,0,4,0.00
2013-3-31,74,58,51,67,51,43,80,77,75,29.77,29.61,2,0,10,0.95